Regional Weather Roundup
Issued by NWS Albany, NY

Home | Current Version | Previous Version | Text Only | Print | Product List | Glossary On
Versions: 1 2 3 4 5 6 7 8 9 10 11 12 13 14 15 16 17 18 19 20 21 22 23 24 25 26 27 28 29 30 31 32 33 34 35 36 37 38 39 40 41 42 43 44 45 46 47 48 49 50
568
ASUS41 KALY 281610
RWRALY

NEW YORK STATE HOURLY WEATHER ROUNDUP
NATIONAL WEATHER SERVICE ALBANY NY
1200 PM EDT THU APR 28 2016

NOTE: "FAIR" INDICATES FEW OR NO CLOUDS BELOW 12,000 FEET WITH NO
SIGNIFICANT WEATHER AND/OR NO OBSTRUCTIONS TO VISIBILITY.

NYZ032-033-038>043-046>054-057>066-NYZ062>081-082-084-281700-
EAST


CITY           SKY/WX    TMP DP  RH WIND       PRES   REMARKS
ALBANY         MOSUNNY   51  20  29 VRB3      30.07F
GLENS FALLS    SUNNY     49  18  29 CALM      30.06F
POUGHKEEPSIE   SUNNY     56  24  29 N7        30.05F
NEWBURGH       MOSUNNY   54  25  32 E16       30.06
MONTGOMERY     PTSUNNY   56  27  32 VRB3      30.05S
WHITE PLAINS   MOSUNNY   57  17  21 CALM      30.05R
ISLIP          PTSUNNY   53  35  50 S12       30.06R
NEW YORK CITY  CLOUDY    56  22  26 NE7       30.07R
CENTRAL PARK   CLOUDY    56  24  29 VRB3      30.09R
$$

NYZ005>009-017-018-044>046-055-056-281700-
CENTRAL


CITY           SKY/WX    TMP DP  RH WIND       PRES   REMARKS
FULTON         SUNNY     52  20  28 N9        30.09F
SYRACUSE       CLOUDY    50  21  32 NW3       30.09F
ROME           SUNNY     51  21  30 NW9       30.08F
ELMIRA         CLOUDY    51  19  28 E9        30.04F
BINGHAMTON     MOSUNNY   47  22  37 VRB3      30.03F
MONTICELLO     CLOUDY    54  16  22 CALM      30.04S
$$

NYZ026>034-041>043-087-281700-
NORTH


CITY           SKY/WX    TMP DP  RH WIND       PRES   REMARKS
WATERTOWN      SUNNY     46  23  40 N15       30.11F
FORT DRUM      NOT AVBL
MASSENA        SUNNY     42  17  36 MISG      30.17S
SARANAC LAKE   SUNNY     39  14  36 VRB5      30.04S
PLATTSBURGH    SUNNY     39  19  44 NE13G22   30.14S WCI  31
$$

NYZ001>004-010>016-019>021-085-281700-
WEST


CITY           SKY/WX    TMP DP  RH WIND       PRES   REMARKS
NIAGARA FALLS  CLOUDY    50  24  36 E14       30.05
BUFFALO        CLOUDY    49  21  33 E16       30.04F
DUNKIRK        CLOUDY    51  22  31 NE14      30.00F
JAMESTOWN      MOSUNNY   46  19  34 E12       29.96F
WELLSVILLE     CLOUDY    46  21  37 E7        30.02S
ROCHESTER      CLOUDY    50  23  34 E12       30.08F
PENN YAN       MOSUNNY   48  22  35 E6        30.08F
$$

             KEY
       WCI = WIND CHILL INDEX
       VSB = VISIBILITY
       HX  = HEAT INDEX
$$




USA.gov is the U.S. government's official web portal to all federal, state and local government web resources and services.